[[{"header":{"parameterUnit":"m.s-1","parameterCategory":1,"la1":30.2991,"la2":30.254,"lo1":-89.0895,"lo2":-89.0444,"dy":0.0017,"dx":0.0017,"nx":28,"ny":28,"refTime":"2024-05-19T03:00:00:Z","depth":0,"parameterNumber":2,"parameterNumberName":"U-component_of_WINDS"},"data":[0,0,0,0,0,0,0,0,0,0,0,0,0,0,0,0,0,0,0,0,0,0,0,0,0,0,0,0,0,0,0,0,0,0,0,0,0,0,0,0,0,0,0,0,0,0,0,0,0,0,0,0,0,0,0,0,0,0,2.5057,2.5059,0,2.5211,2.5213,2.5215,2.5234,2.5232,2.5231,2.5229,2.5389,2.5394,2.54,0,0,0,0,0,0,0,0,0,0,0,0,0,2.4779,2.4784,2.5057,2.5059,2.5061,2.5211,2.5213,2.5215,2.5234,2.5232,2.523,2.5228,2.5387,2.5393,2.54,0,0,0,0,0,0,0,0,0,0,0,0,0,2.4913,2.4785,2.5057,2.5088,2.5092,2.5211,2.5213,2.5216,2.5234,2.5232,2.523,2.5228,2.5385,2.5393,2.5401,2.5499,0,0,2.5427,2.5431,0,0,0,0,0,0,0,0,2.4905,2.4923,2.5082,2.5086,2.5091,2.5201,2.5173,2.5311,2.5235,2.518,2.5229,2.5226,2.5328,2.5341,2.5375,2.5506,2.5513,2.5428,2.5433,2.5437,2.5439,0,0,0,0,0,0,0,2.4896,2.4916,2.5118,2.5084,2.509,2.5095,2.5111,2.52,2.5265,2.5185,2.5187,2.5205,2.533,2.5367,2.5379,2.5515,2.5428,2.5435,2.544,2.5444,2.5732,2.5735,0,0,0,0,0,0,2.4881,2.4909,2.5113,2.5123,2.4991,2.5101,2.512,2.5168,2.5264,2.5277,2.5206,2.5205,2.5353,2.5369,2.5385,2.5503,2.5436,2.5444,2.5449,2.573,2.5733,2.5736,0,0,0,0,0,0,2.4875,2.4899,2.5107,2.5016,2.5043,2.5109,2.5162,2.5172,2.5209,2.528,2.5292,2.5232,2.5352,2.5373,2.547,2.5509,2.5448,2.5456,2.5727,2.5731,2.5734,2.5743,0,0,0,0,0,0,2.4867,2.4896,2.4934,2.5017,2.5048,2.5189,2.5165,2.5177,2.5223,2.5223,2.5307,2.5319,2.5352,2.5457,2.5478,2.552,2.5463,2.5724,2.5729,2.5733,2.5739,2.5747,2.5753,0,0,0,0,0,2.4857,2.4931,2.4936,2.4961,2.5096,2.5192,2.5209,2.5245,2.5226,2.5265,2.531,2.5316,2.5502,2.5467,2.5491,2.5536,2.5721,2.5727,2.5733,2.5736,2.5745,2.5753,0,0,0,0,0,0,2.4852,2.4943,2.4949,2.5053,2.5114,2.5195,2.5244,2.5254,2.5322,2.5319,2.5362,2.538,2.5475,2.5516,2.5475,2.5634,2.561,2.5621,2.5604,2.5613,2.562,2.5607,2.547,0,0,0,0,0,2.4863,2.4933,2.5008,2.5093,2.5123,2.5178,2.5221,2.5243,2.5309,2.5335,2.5388,2.5452,2.5524,2.5571,2.5642,2.5746,2.5763,2.5788,2.5795,2.58,2.5809,2.5864,2.5876,2.5755,2.5755,2.5755,0,0,2.4887,2.4945,2.4987,2.5093,2.5143,2.5214,2.52,2.5276,2.5329,2.5347,2.5441,2.5482,2.5556,2.5656,2.5703,2.5693,2.5846,2.5808,2.5811,2.5817,2.5871,2.5883,2.5893,2.5759,2.5758,2.5758,0,0,2.4966,2.5017,2.5092,2.5142,2.5218,2.5254,2.5272,2.5351,2.5379,2.5474,2.5488,2.5552,2.5677,2.5728,2.577,2.5867,2.5874,2.5889,2.5924,2.5977,2.5987,2.5995,2.6028,2.6039,2.5898,2.5898,2.5898,0,2.4986,2.5093,2.5129,2.5204,2.525,2.5269,2.5345,2.5392,2.5487,2.5518,2.5506,2.5661,2.5712,2.5823,2.5846,2.5881,2.5902,2.5879,2.5982,2.5991,2.6,2.6031,2.6044,2.5899,2.5899,2.5899,2.5898,0,2.5112,2.5186,2.5237,2.5327,2.5379,2.5454,2.5502,2.555,2.5568,2.5605,2.5701,2.5763,2.5845,2.5874,2.5893,2.5988,2.5978,2.5974,2.595,2.6012,2.6042,2.6055,2.59,2.59,2.59,2.5899,0,0,2.5192,2.5301,2.5319,2.5359,2.5444,2.5502,2.5577,2.5657,2.5697,2.5762,2.5825,2.593,2.5925,2.5973,2.5998,2.6045,2.6115,2.6034,2.6037,2.6045,2.6221,2.6223,2.6236,2.6121,2.6124,2.6126,2.6214,0,2.5279,2.5413,2.5448,2.5562,2.5629,2.5648,2.5714,2.5772,2.5809,2.5872,2.5913,2.5985,2.5975,2.6003,2.6052,2.6096,2.6151,2.6091,2.618,2.6182,2.6158,2.6253,2.6255,2.6336,2.6227,2.6229,2.623,0,2.5398,2.5464,2.5584,2.5658,2.5688,2.5746,2.5821,2.5882,2.5949,2.5972,2.6025,2.6045,2.6123,2.6096,2.6204,2.6162,2.6201,2.6229,2.6233,2.6241,2.6209,2.6261,2.6363,2.6374,2.625,2.6248,2.6247,0,2.5442,2.5561,2.5648,2.5682,2.5772,2.5811,2.5851,2.5915,2.596,2.6027,2.6056,2.6131,2.6172,2.6229,2.6268,2.6245,2.6372,2.6349,2.6393,2.6392,2.6418,2.6415,2.6524,2.6446,2.6446,2.6445,2.6445,0,2.5534,2.5606,2.5668,2.5721,2.5802,2.5842,2.5921,2.5961,2.6018,2.6079,2.6101,2.6158,2.6207,2.627,2.6302,2.6385,2.6404,2.6424,2.6431,2.6421,2.6418,2.6446,2.6441,2.6449,2.6448,2.6447,2.6447,0,2.5596,2.564,2.5736,2.5812,2.5833,2.5889,2.5954,2.6006,2.6044,2.612,2.6141,2.6199,2.6274,2.6319,2.6416,2.6437,2.6528,2.6534,2.6505,2.6508,2.6549,2.6543,2.6678,2.6697,2.6607,2.6608,2.6609,0,2.5651,2.5706,2.5788,2.583,2.5869,2.5937,2.5983,2.6024,2.6071,2.615,2.6192,2.6269,2.6332,2.6452,2.6503,2.6576,2.6583,2.6625,2.6594,2.6581,2.6581,2.6576,2.6581,2.6629,2.663,2.6631,2.6631,0,2.5743,2.5761,2.5827,2.5899,2.5953,2.6012,2.6071,2.6105,2.6156,2.6207,2.6284,2.6333,2.643,2.6505,2.6582,2.6623,2.6635,2.6641,2.6654,2.6644,2.6624,2.6633,2.6517,2.6637,2.6637,2.6636,2.6636,2.6636,2.5801,2.5851,2.5915,2.5987,2.6035,2.609,2.6142,2.6185,2.6249,2.6331,2.6351,2.6431,2.6496,2.6601,2.6643,2.6706,2.6699,2.6719,2.6724,2.6728,2.6728,2.6615,2.672,2.672,2.672,2.672,2.672,0,2.5892,2.5935,2.6,2.6081,2.6137,2.6144,2.6209,2.6255,2.6325,2.6384,2.6445,2.6533,2.6606,2.6662,2.6737,2.6776,2.6784,2.6794,2.6791,2.6799,2.6731,2.671,2.6787,2.6787,2.6787,2.6787,2.6787,2.6787,2.5946,2.603,2.6056,2.6163,2.6206,2.6283,2.632,2.637,2.6417,2.6513,2.6573,2.6609,2.6667,2.6746,2.6812,2.6827,2.6853,2.6862,2.6877,2.6812,2.6805,2.6798,2.6778,2.6868,2.6868,2.6941,2.6941,2.6942]},{"header":{"parameterUnit":"m.s-1","parameterCategory":1,"la1":30.2991,"la2":30.254,"lo1":-89.0895,"lo2":-89.0444,"dy":0.0017,"dx":0.0017,"nx":28,"ny":28,"refTime":"2024-05-19T03:00:00:Z","depth":0,"parameterNumber":3,"parameterNumberName":"V-component_of_WINDS"},"data":[0,0,0,0,0,0,0,0,0,0,0,0,0,0,0,0,0,0,0,0,0,0,0,0,0,0,0,0,0,0,0,0,0,0,0,0,0,0,0,0,0,0,0,0,0,0,0,0,0,0,0,0,0,0,0,0,0,0,2.587,2.587,0,2.5896,2.5896,2.5896,2.5843,2.5841,2.5839,2.5838,2.5865,2.5867,2.5869,0,0,0,0,0,0,0,0,0,0,0,0,0,2.5772,2.5774,2.587,2.587,2.587,2.5896,2.5896,2.5897,2.5843,2.5841,2.5839,2.5837,2.5864,2.5867,2.587,0,0,0,0,0,0,0,0,0,0,0,0,0,2.5808,2.5775,2.587,2.5847,2.5845,2.5896,2.5896,2.5897,2.5844,2.5841,2.5838,2.5836,2.5863,2.5867,2.587,2.5944,0,0,2.5881,2.5882,0,0,0,0,0,0,0,0,2.5806,2.5812,2.585,2.5848,2.5846,2.5863,2.5872,2.5913,2.5844,2.5844,2.5838,2.5835,2.5867,2.587,2.588,2.5946,2.5947,2.5881,2.5883,2.5885,2.5886,0,0,0,0,0,0,0,2.5803,2.581,2.588,2.585,2.5848,2.5835,2.5837,2.5879,2.587,2.5844,2.584,2.5844,2.5865,2.5877,2.5881,2.5947,2.5881,2.5884,2.5886,2.5888,2.6072,2.6075,0,0,0,0,0,0,2.5804,2.5808,2.5879,2.5881,2.5819,2.5839,2.5841,2.5861,2.5869,2.5868,2.5846,2.5841,2.5872,2.5876,2.5881,2.5967,2.5885,2.5888,2.589,2.6069,2.6073,2.6076,0,0,0,0,0,0,2.5802,2.5811,2.5878,2.5844,2.5851,2.5843,2.5865,2.5863,2.5874,2.5871,2.5869,2.586,2.587,2.5876,2.5928,2.5967,2.589,2.5893,2.6066,2.607,2.6074,2.6141,0,0,0,0,0,0,2.58,2.581,2.5839,2.5845,2.5853,2.5926,2.5868,2.5865,2.5881,2.5875,2.5883,2.5882,2.5869,2.5924,2.5932,2.5971,2.5896,2.6063,2.6068,2.6073,2.6135,2.6147,2.6157,0,0,0,0,0,2.5796,2.5857,2.5841,2.585,2.5889,2.5928,2.5933,2.5916,2.5884,2.5912,2.5909,2.5882,2.5962,2.5929,2.5938,2.5979,2.606,2.6067,2.6073,2.613,2.6144,2.6156,0,0,0,0,0,0,2.5858,2.5858,2.584,2.5904,2.5916,2.5919,2.5954,2.5932,2.5953,2.5947,2.5925,2.5927,2.5983,2.5986,2.595,2.605,2.6005,2.6014,2.6046,2.606,2.607,2.6068,2.5899,0,0,0,0,0,2.5879,2.591,2.5909,2.5966,2.5973,2.5963,2.5979,2.5965,2.5977,2.5982,2.5983,2.5995,2.6022,2.6041,2.6067,2.6135,2.6135,2.6167,2.6178,2.6187,2.6194,2.6229,2.6242,2.6096,2.6096,2.6096,0,0,2.5923,2.5926,2.5948,2.5979,2.5986,2.6019,2.5968,2.6005,2.6029,2.5987,2.6036,2.6037,2.6049,2.611,2.6136,2.6114,2.6234,2.6195,2.6202,2.6205,2.6236,2.625,2.6263,2.6101,2.61,2.6099,0,0,2.6019,2.6026,2.6073,2.6082,2.6093,2.6086,2.6097,2.6102,2.6101,2.615,2.6119,2.6147,2.6195,2.6204,2.6216,2.6313,2.6288,2.6322,2.6378,2.6412,2.6423,2.6433,2.6467,2.6479,2.6329,2.6329,2.633,0,2.6072,2.612,2.6101,2.614,2.6153,2.6116,2.6163,2.6172,2.6192,2.6202,2.6177,2.6235,2.6241,2.6301,2.6325,2.6336,2.6347,2.6321,2.6423,2.6433,2.6442,2.6474,2.6487,2.6333,2.6333,2.6333,2.6332,0,2.6184,2.6218,2.6255,2.6274,2.6291,2.6335,2.632,2.6341,2.6324,2.6319,2.6368,2.6373,2.6398,2.6411,2.6396,2.647,2.6455,2.6427,2.6382,2.646,2.649,2.6502,2.6339,2.6338,2.6336,2.6335,0,0,2.6321,2.6327,2.6341,2.6348,2.6357,2.6383,2.6423,2.6447,2.6464,2.6478,2.6511,2.6552,2.6525,2.6538,2.6523,2.6553,2.6628,2.6521,2.6521,2.6539,2.6707,2.6727,2.6741,2.6611,2.6613,2.6615,2.6705,0,2.6415,2.6485,2.6467,2.6536,2.6566,2.653,2.6565,2.6574,2.657,2.6594,2.659,2.6618,2.6582,2.6589,2.6617,2.6613,2.6661,2.6606,2.664,2.6642,2.6638,2.6757,2.6779,2.6864,2.6717,2.6719,2.672,0,2.6535,2.6553,2.6624,2.6627,2.6638,2.667,2.6689,2.6714,2.6722,2.6717,2.673,2.6709,2.6748,2.6702,2.6755,2.6718,2.6731,2.6731,2.6734,2.6736,2.6685,2.6761,2.6891,2.6903,2.6738,2.6737,2.6735,0,2.6626,2.6668,2.6715,2.6723,2.6727,2.675,2.6753,2.6759,2.6774,2.679,2.6799,2.6821,2.6832,2.6849,2.6833,2.6802,2.6888,2.6841,2.6883,2.6884,2.6903,2.6902,2.7035,2.6913,2.6913,2.6913,2.6912,0,2.6733,2.6778,2.6756,2.6785,2.6834,2.6812,2.6861,2.686,2.6865,2.6893,2.6864,2.689,2.6869,2.6893,2.6882,2.6926,2.6932,2.6928,2.6924,2.693,2.693,2.6938,2.6931,2.6916,2.6915,2.6914,2.6914,0,2.6842,2.683,2.6879,2.6878,2.6879,2.6915,2.6914,2.694,2.6933,2.6969,2.6976,2.6965,2.6992,2.6978,2.7007,2.6999,2.7055,2.7044,2.7052,2.7049,2.7091,2.7087,2.7234,2.7251,2.7119,2.712,2.7121,0,2.6911,2.6944,2.6947,2.6963,2.6967,2.6994,2.7008,2.6988,2.7004,2.7015,2.704,2.7065,2.7083,2.7128,2.7122,2.7143,2.7132,2.7181,2.7135,2.7139,2.7131,2.7129,2.7131,2.7191,2.7192,2.7194,2.7195,0,2.7033,2.7025,2.7046,2.7065,2.7083,2.7097,2.7109,2.7124,2.7103,2.7123,2.7149,2.7164,2.7192,2.7216,2.7234,2.7236,2.7212,2.7209,2.722,2.7226,2.7229,2.7226,2.7077,2.7206,2.7205,2.7204,2.7203,2.7203,2.7124,2.7151,2.7156,2.718,2.7187,2.7198,2.7222,2.7217,2.7239,2.726,2.7246,2.7278,2.7284,2.7305,2.7311,2.7334,2.7314,2.733,2.7334,2.7338,2.7343,2.7225,2.7338,2.7337,2.7337,2.7337,2.7336,0,2.7243,2.7244,2.7267,2.7283,2.7302,2.7277,2.7288,2.7305,2.7333,2.7341,2.7359,2.7389,2.7411,2.7407,2.7427,2.7447,2.7436,2.7453,2.7451,2.7451,2.736,2.7348,2.7461,2.7461,2.7461,2.7461,2.7461,2.7461,2.7308,2.7352,2.7343,2.7389,2.739,2.742,2.7428,2.7438,2.7443,2.7478,2.7496,2.7493,2.7495,2.7515,2.7535,2.7533,2.7541,2.7562,2.7556,2.747,2.7458,2.7446,2.7435,2.7564,2.7564,2.7644,2.7645,2.7646]}]]